Location: Badger Butte
(44.9311°N, 118.3053°W)
Time: 09:31:24
(UTC+00:00)

Daily predictions for brighter satellites

Satellite Brightness Start Highest point End
(mag) Time Altitude Azimuth Time Altitude Azimuth Time Altitude Azimuth
Cosmos 1331 Rocket 4.1 12:00:05 10° NNW 12:05:22 84° ENE 12:10:33 10° SSE
Cosmos 2251 Rocket 4.1 12:06:35 10° S 12:11:47 61° ESE 12:17:03 10° NNE
CZ-4B R/B 3.2 12:07:40 10° N 12:11:58 62° WNW 12:16:23 10° SSW
Okean-O 4.3 12:08:33 10° NNE 12:12:41 37° E 12:16:46 10° SSE
Cosmos 158 Rocket 4.4 12:08:46 10° SW 12:13:36 45° WNW 12:18:36 10° N
SL-16 R/B 3.3 12:09:52 10° NNW 12:15:26 52° ENE 12:20:57 10° SE
Cosmos 2061 Rocket 4.4 12:11:33 10° NNW 12:17:19 41° W 12:23:03 10° SSW
